AirNav   ProFlight Series 2 Aviation Headset
 
 458 users online  

MI61 Henry Ford Wyandotte Hospital Heliport
Wyandotte, Michigan, USA

GOING TO WYANDOTTE?


FAA INFORMATION EFFECTIVE 16 JULY 2020

Location

FAA Identifier: MI61
Lat/Long: 42-12-33.8700N 083-08-38.7200W
42-12.564500N 083-08.645333W
42.2094083,-83.1440889
(estimated)
Elevation: 578 ft. / 176 m (estimated)
Variation: 06W (1985)
From city: LCTD IN TOWN.
Time zone: UTC -4 (UTC -5 during Standard Time)
Zip code: 48192

Heliport Operations

Heliport use: Private use, MEDICAL USE.
Activation date: 10/1970
Control tower: no
ARTCC: CLEVELAND CENTER
FSS: LANSING FLIGHT SERVICE STATION
Attendance: IREG
Wind indicator: lighted
Segmented circle: no

Heliport Communications

WX AWOS-3 at ONZ (7 nm S): 119.675 (734-692-9686)
WX ASOS at DTW (9 nm W): 133.675 (734-955-5015)
WX ASOS at DET (13 nm NE): PHONE 313-371-9696
WX ASOS at YIP (17 nm W): PHONE 734-961-6843

Nearby radio navigation aids

VOR radial/distance  VOR name  Freq  Var
DXOr097/9.9DETROIT VOR/DME113.4006W
CRLr058/17.0CARLETON VOR/DME115.7003W
SVMr124/23.3SALEM VORTAC114.3003W

 
NDB name  Hdg/Dist  Freq  Var  ID
GROSSE ILE010/6.541907WRYS .-. -.-- ...
TECUMSEH078/34.723906WTCU - -.-. ..-

Heliport Services

Airframe service: NONE
Powerplant service: NONE

Runway Information

Helipad H1

Dimensions: 40 x 40 ft. / 12 x 12 m
Surface: concrete
Latitude: 42-12.564500N
Longitude: 083-08.645333W
Elevation: 578.0 ft.
Traffic pattern: leftleft

Heliport Ownership and Management from official FAA records

Ownership: Privately-owned
Owner: HENRY FORD HEALTH SYSTEM
WYANDOTTE HOSPITAL
WYANDOTTE, MI 48192
Phone (734) 246-6008
Manager: TOM MAHONY
2333 BIDDLE
WYANDOTTE, MI 48192
Phone (734) 246-6008
EXT2604

Additional Remarks

APCHS & DEPS TO THE N.
+64 FT UNLGTD MAST POLE 500 NNE OF HELI.
FOR CD CTC DETROIT APCH AT 800-499-8181.

Instrument Procedures

There are no published instrument procedures at MI61.

Some nearby airports with instrument procedures:

KONZ - Grosse Ile Municipal Airport (7 nm S)
KDTW - Detroit Metropolitan Wayne County Airport (9 nm W)
KDET - Coleman A Young Municipal Airport (13 nm NE)
1D2 - Canton-Plymouth-Mettetal Airport (16 nm NW)
KYIP - Willow Run Airport (17 nm W)
 
Loc | Ops | Rwys | IFR | FBO | Links
Com | Nav | Svcs | Stats | Notes
Area around MI61 (Henry Ford Wyandotte Hospital Heliport)
 
Road maps at: MapQuest Bing Google
 
Aerial photo
No photo
 
Sectional chart

 
Airport distance calculator
Flying to Henry Ford Wyandotte Hospital Heliport? Find the distance to fly.

From to MI61

Sunrise and sunset
Times for 07-Aug-2020
 Local
(UTC-4)
 Zulu
(UTC)
Morning civil twilight06:0310:03
Sunrise06:3410:34
Sunset20:4300:43
Evening civil twilight21:1401:14

Current date and time
Zulu (UTC)  07-Aug-2020 10:24:46
Local (UTC-4)  07-Aug-2020 06:24:46
 
METAR
KONZ 
7nm S 
070955Z AUTO 00000KT 10SM CLR 15/13 A3015 RMK AO2 T01450125
KDTW 
9nm W 
070953Z 00000KT 7SM FEW220 16/11 A3016 RMK AO2 SLP210 T01560111 $
CYQG 
9nm NE 
070900Z AUTO 32002KT 9SM CLR 15/13 A3014 RMK SLP207
KDET 
13nm NE 
070953Z 35003KT 10SM CLR 17/12 A3016 RMK AO2 SLP209 T01670122
CXHA 
15nm SE 
070900Z AUTO 36001KT 12/12 RMK AO1 SLP201 T01230116 51002
KYIP 
17nm W 
070953Z 00000KT 10SM CLR 13/11 A3016 RMK AO2 SLP209 T01330106
TAF
KDTW 
9nm W 
070523Z 0706/0812 VRB02KT P6SM SKC FM071200 05006KT P6SM SKC TEMPO 0716/0720 SCT060
CYQG 
9nm NE 
070538Z 0706/0806 VRB03KT P6SM SKC FM071500 05008KT P6SM FEW040 BECMG 0802/0804 VRB03KT RMK FCST BASED ON AUTO OBS. NXT FCST BY 071200Z
KDET 
13nm NE 
070523Z 0706/0806 VRB02KT P6SM SKC FM071200 05006KT P6SM SKC TEMPO 0716/0720 SCT060
KYIP 
17nm W 
070523Z 0706/0806 VRB02KT P6SM SKC FM071200 05006KT P6SM SKC TEMPO 0716/0720 SCT060
NOTAMs
Click for the latest NOTAMs
NOTAMs are issued by the DoD/FAA and will open in a separate window not controlled by AirNav.

 

 
 

Would you like to see your business listed on this page?

 If your business provides an interesting product or service to pilots, flight crews, aircraft, or users of the Henry Ford Wyandotte Hospital Heliport, you should consider listing it here.  To start the listing process, click on the button below
 
Add a business
 

Other Pages about Henry Ford Wyandotte Hospital Heliport

Update a link
 
Copyright © AirNav, LLC. All rights reserved. Privacy Policy  Contact